Change the Weather History Date:

Monday, September 23, 2013

  Actual Average (KBIV) Record (KBIV)
Temperature  
Mean Temperature 52 °F 60 °F  
Max Temperature 66 °F 71 °F 89 °F (2010)
Min Temperature 37 °F 50 °F 33 °F (1992)
Degree Days  
Heating Degree Days 14 6  
Month to date heating degree days 67  
Since 1 July heating degree days 82  
Cooling Degree Days 0 1  
Month to date cooling degree days 56  
Year to date cooling degree days 674  
Growing Degree Days 2 (Base 50)    
Moisture  
Dew Point 44 °F    
Average Humidity 78    
Maximum Humidity 99    
Minimum Humidity 48    
Precipitation  
Precipitation 0.00 in 0.15 in 2.63 in (1988)
Month to date precipitation 2.76  
Year to date precipitation 25.97  
Sea Level Pressure  
Sea Level Pressure 30.11 in    
Wind  
Wind Speed 3 mph (ESE)    
Max Wind Speed 9 mph    
Max Gust Speed -    
Visibility 10 miles    
Events      
T = Trace of Precipitation, MM = Missing Value Source: NWS Daily Summary

Daily Weather History Graph

Daily Weather History Graph

Search for Another Location

Airport or City:

Trip Planner

Search our weather history database for the weather conditions in past years. The results will help you decide how hot, cold, wet, or windy it might be!

Date:

Astronomy

Sep. 23, 2013 Rise Set
Actual Time 7:33 AM EDT 7:40 PM EDT
Civil Twilight 7:05 AM EDT 8:08 PM EDT
Nautical Twilight 6:32 AM EDT 8:40 PM EDT
Astronomical Twilight 5:59 AM EDT 9:14 PM EDT
Moon 10:06 PM EDT (9/23) 11:57 AM EDT (9/23)
Length of Visible Light 13h 02m
Length of Day
12h 06m
Waning Gibbous, 81% of the Moon is Illuminated
Sep 23
Waning Gibbous
Sep 26
Last Quarter
Oct 4
New
Oct 11
First Quarter
Oct 18
Full

Hourly Weather History & Observations

Time (EDT) Temp. Windchill Dew Point Humidity Pressure Visibility Wind Dir Wind Speed Gust Speed Precip Events Conditions
12:14 AM 44.8 °F - 43.2 °F 94% 30.08 in 10.0 mi Calm Calm - N/A   Clear
12:35 AM 43.5 °F - 42.3 °F 95% 30.08 in 10.0 mi Calm Calm - N/A   Clear
12:55 AM 43.0 °F - 41.9 °F 96% 30.09 in 10.0 mi Calm Calm - N/A   Clear
1:15 AM 42.6 °F - 41.7 °F 97% 30.09 in 10.0 mi Calm Calm - N/A   Clear
1:35 AM 41.7 °F - 40.8 °F 97% 30.09 in 10.0 mi Calm Calm - N/A   Clear
1:54 AM 41.4 °F - 40.8 °F 98% 30.10 in 10.0 mi Calm Calm - N/A   Clear
2:15 AM 41.0 °F - 40.3 °F 97% 30.10 in 10.0 mi Calm Calm - N/A   Clear
2:35 AM 40.6 °F - 40.1 °F 98% 30.10 in 10.0 mi Calm Calm - N/A   Clear
2:54 AM 40.6 °F - 40.1 °F 98% 30.10 in 10.0 mi Calm Calm - N/A   Scattered Clouds
3:15 AM 40.6 °F - 40.1 °F 98% 30.11 in 10.0 mi Calm Calm - N/A   Overcast
3:35 AM 42.1 °F - 41.4 °F 97% 30.11 in 10.0 mi Calm Calm - N/A   Overcast
3:55 AM 42.4 °F - 41.5 °F 97% 30.10 in 10.0 mi Calm Calm - N/A   Overcast
4:15 AM 42.3 °F - 41.5 °F 97% 30.10 in 10.0 mi Calm Calm - N/A   Mostly Cloudy
4:35 AM 41.5 °F 38.6 °F 40.6 °F 97% 30.10 in 10.0 mi East 4.6 mph - N/A   Scattered Clouds
4:55 AM 41.4 °F 39.4 °F 40.6 °F 97% 30.10 in 10.0 mi East 3.5 mph - N/A   Clear
5:15 AM 41.9 °F - 41.2 °F 97% 30.10 in 10.0 mi Calm Calm - N/A   Clear
5:35 AM 40.8 °F - 40.1 °F 97% 30.11 in 10.0 mi Calm Calm - N/A   Clear
5:55 AM 40.1 °F - 39.4 °F 97% 30.11 in 10.0 mi Calm Calm - N/A   Clear
6:15 AM 39.4 °F - 38.7 °F 97% 30.12 in 10.0 mi Calm Calm - N/A   Clear
6:35 AM 38.1 °F - 37.6 °F 98% 30.12 in 10.0 mi Calm Calm - N/A   Clear
6:55 AM 37.9 °F - 37.4 °F 98% 30.12 in 10.0 mi Calm Calm - N/A   Clear
7:15 AM 38.3 °F - 37.8 °F 98% 30.14 in 10.0 mi Calm Calm - N/A   Clear
7:35 AM 37.6 °F - 37.2 °F 99% 30.15 in 10.0 mi Calm Calm - N/A   Scattered Clouds
7:55 AM 37.6 °F - 37.2 °F 99% 30.15 in 10.0 mi Calm Calm - N/A   Mostly Cloudy
8:15 AM 39.7 °F 37.6 °F 39.4 °F 99% 30.16 in 10.0 mi ENE 3.5 mph - N/A   Mostly Cloudy
8:35 AM 41.0 °F 39.0 °F 40.5 °F 98% 30.16 in 10.0 mi ENE 3.5 mph - N/A   Scattered Clouds
8:55 AM 42.8 °F 40.1 °F 41.9 °F 97% 30.16 in 10.0 mi East 4.6 mph - N/A   Mostly Cloudy
9:15 AM 43.7 °F 39.7 °F 42.3 °F 95% 30.15 in 10.0 mi East 6.9 mph - N/A   Overcast
9:35 AM 45.3 °F 44.0 °F 43.3 °F 93% 30.15 in 10.0 mi East 3.5 mph - N/A   Overcast
9:55 AM 47.3 °F - 44.2 °F 89% 30.16 in 10.0 mi East 5.8 mph - N/A   Overcast
10:15 AM 50.5 °F - 45.3 °F 82% 30.16 in 10.0 mi ESE 6.9 mph - N/A   Scattered Clouds
10:35 AM 53.2 °F - 45.1 °F 74% 30.16 in 10.0 mi ESE 6.9 mph - N/A   Clear
10:55 AM 54.9 °F - 45.7 °F 71% 30.15 in 10.0 mi ESE 6.9 mph - N/A   Clear
11:14 AM 56.3 °F - 45.7 °F 68% 30.15 in 10.0 mi SE 6.9 mph - N/A   Clear
11:35 AM 57.7 °F - 46.2 °F 65% 30.15 in 10.0 mi ESE 6.9 mph - N/A   Clear
11:55 AM 59.2 °F - 46.0 °F 62% 30.15 in 10.0 mi ESE 5.8 mph - N/A   Scattered Clouds
12:14 PM 60.1 °F - 44.8 °F 57% 30.15 in 10.0 mi ESE 6.9 mph - N/A   Clear
12:35 PM 60.4 °F - 45.0 °F 57% 30.15 in 10.0 mi SE 3.5 mph - N/A   Clear
12:55 PM 61.7 °F - 44.2 °F 53% 30.15 in 10.0 mi South 5.8 mph - N/A   Scattered Clouds
1:14 PM 62.1 °F - 45.5 °F 55% 30.15 in 10.0 mi SE 4.6 mph - N/A   Scattered Clouds
1:35 PM 62.1 °F - 45.1 °F 54% 30.14 in 10.0 mi SSE 5.8 mph - N/A   Scattered Clouds
1:54 PM 63.5 °F - 45.5 °F 52% 30.14 in 10.0 mi ESE 9.2 mph - N/A   Scattered Clouds
2:15 PM 63.9 °F - 45.3 °F 51% 30.13 in 10.0 mi SE 6.9 mph - N/A   Scattered Clouds
2:34 PM 64.4 °F - 45.1 °F 50% 30.12 in 10.0 mi SE 6.9 mph - N/A   Scattered Clouds
2:55 PM 64.9 °F - 45.9 °F 50% 30.11 in 10.0 mi East 6.9 mph - N/A   Clear
3:15 PM 64.8 °F - 45.3 °F 49% 30.11 in 10.0 mi SE 5.8 mph - N/A   Clear
3:34 PM 65.8 °F - 46.2 °F 49% 30.10 in 10.0 mi ESE 9.2 mph - N/A   Clear
3:55 PM 65.3 °F - 45.9 °F 49% 30.10 in 10.0 mi SSE 6.9 mph - N/A   Clear
4:15 PM 66.0 °F - 45.7 °F 48% 30.09 in 10.0 mi ESE 6.9 mph - N/A   Clear
4:34 PM 65.7 °F - 45.7 °F 48% 30.09 in 10.0 mi SSE 5.8 mph - N/A   Clear
4:55 PM 65.8 °F - 46.0 °F 49% 30.09 in 10.0 mi ESE 5.8 mph - N/A   Clear
5:15 PM 65.7 °F - 46.2 °F 49% 30.09 in 10.0 mi ESE 8.1 mph - N/A   Clear
5:35 PM 65.5 °F - 45.9 °F 49% 30.09 in 10.0 mi ESE 9.2 mph - N/A   Clear
5:55 PM 65.3 °F - 46.4 °F 50% 30.08 in 10.0 mi East 6.9 mph - N/A   Clear
6:15 PM 64.4 °F - 46.9 °F 53% 30.08 in 10.0 mi East 9.2 mph - N/A   Clear
6:35 PM 63.5 °F - 46.9 °F 55% 30.08 in 10.0 mi East 9.2 mph - N/A   Clear
6:55 PM 62.6 °F - 46.9 °F 57% 30.08 in 10.0 mi East 8.1 mph - N/A   Clear
7:15 PM 60.8 °F - 48.0 °F 63% 30.09 in 10.0 mi East 4.6 mph - N/A   Clear
7:35 PM 58.8 °F - 48.2 °F 68% 30.09 in 10.0 mi East 3.5 mph - N/A   Clear
7:55 PM 57.4 °F - 48.2 °F 71% 30.09 in 10.0 mi East 3.5 mph - N/A   Clear
8:15 PM 55.8 °F - 48.0 °F 75% 30.09 in 10.0 mi East 4.6 mph - N/A   Clear
8:35 PM 55.0 °F - 47.7 °F 76% 30.10 in 10.0 mi East 4.6 mph - N/A   Clear
8:55 PM 54.0 °F - 47.5 °F 79% 30.10 in 10.0 mi East 4.6 mph - N/A   Clear
9:14 PM 53.6 °F - 47.3 °F 79% 30.10 in 10.0 mi East 5.8 mph - N/A   Clear
9:35 PM 52.5 °F - 46.9 °F 81% 30.10 in 10.0 mi East 3.5 mph - N/A   Clear
9:55 PM 52.0 °F - 46.8 °F 82% 30.10 in 10.0 mi East 4.6 mph - N/A   Clear
10:14 PM 51.8 °F - 46.6 °F 82% 30.10 in 10.0 mi East 5.8 mph - N/A   Clear
10:35 PM 51.4 °F - 46.4 °F 83% 30.10 in 10.0 mi ESE 5.8 mph - N/A   Clear
10:55 PM 51.1 °F - 46.4 °F 84% 30.10 in 10.0 mi ESE 6.9 mph - N/A   Clear
11:14 PM 50.7 °F - 46.0 °F 84% 30.10 in 10.0 mi ESE 5.8 mph - N/A   Clear
11:35 PM 50.2 °F - 45.7 °F 85% 30.10 in 10.0 mi ESE 5.8 mph - N/A   Clear
11:55 PM 49.3 °F - 45.3 °F 86% 30.10 in 10.0 mi ESE 4.6 mph - N/A   Clear